Showing default

GCOM-C, 43065

Orbit data source: Space-Track

GCOM-C, 43065 is a payload satellite owned by JAXA (JP) in SSO that was launched on Sat, 23 Dec 2017 UTC via an H-IIA 202 launch vehicle from the Tanegashima Space Center (TNSTA). Payloads include a variety of satellites, spacecraft, and rockets equipped with specific instruments for various scientific and technological missions. These include communications satellites like Starlink; space stations such as the ISS; scientific satellites like the Hubble; Earth observation satellites from companies like Planet Labs, Umbra, and HawkEye 360; GPS; miniature CubeSats for education and research; and military/defense satellites.

Loading next visibility...
GCOM-C details
Identifier
43065, 2017-082A
Orbit
SSO
Last TLE update12 hours ago
Origin
Flag of JPJAXA (JP / JPN)
ManufacturerNEC Toshiba/Fuchu
MissionOperational Civil Imaging
Bus & MotorGCOM, AOCS
Mass2,093 kg wet, 1,917 kg dry
Launch date (UTC)
2017-12-23 (7 years ago)
Launch vehicle
H-IIA 202
Launch site
Tanegashima Space Center (TNSTA)
Object type
Payload
Rocket body
Debris
Shape & HBRBox + 2 Pan + 1 Dish, 16.5 m
Radar Cross Section24.018 m², Large (>1 m²)

Expand to show TLE details & history

TLE from 12 hours ago
0 GCOM-C
1 43065U 17082A   24361.10085225  .00000430  00000-0  19383-3 0  9999
2 43065  98.6065  69.1814 0001127  69.4919 290.6382 14.27227865365189
Epoch: 2024-12-26T02:25Z
Definitive object data (Epoch: 2024-12-26T02:25:13.634Z)
Latitude-0.00009°
Longitude-62.21048°
Altitude803.654 km
Speed7.452 km/s
True Right ascension04h 36m 43s
True Declination0° 00' 00"
Sunlit
Object was in full shadow at TLE epoch
Visualization TLE readout
Latitude-46.84138°
Longitude-52.49774°
Altitude819.447 km
Speed7.442 km/s
Apparent Right ascension03h 18m 23s
Apparent Declination-47° 21' 18"
Sunlit
Object is in daylight
Visualization observer readout
Local Sidereal Time13:20:22
Azimuth240.883° WSW
Elevation-67.546°
Doppler factor1
Orbital elements
Apogee altitude798.965 km
Perigee altitude797.347 km
Semi-major axis7,176.293 km
Eccentricity0.0001127
Inclination98.6065°
RAAN69.1814°
Arg. of periapsis69.4919°
True anomaly290.62611°
Mean anomaly290.6382°
Eccentric anomaly290.63216°
Mean motion3.5702 °/min
BSTAR0.00019383
Orbital period100.83 mins
Loading maneuver chart data...
Loading historical data...
Loading historical data...
Loading historical data...
Loading historical data...
Loading historical data...
Loading historical data...
Loading historical data...
Other satellites on launch #82 in the year 2017 (2017-12-23 UTC)

GCOM-C Visibility forecast

Observer location: undefined°, undefined

Span
Click to sort rows by Start time (UTC) header in descending order
Start Az.
Max El. time (UTC)
Max El. Az.
Max El.
End time (UTC)
End Az.
6 mins2024-12-26 16:29:36.071Z55.002° ENE2024-12-26 16:32:36.071Z93.913° ESE17.778°2024-12-26 16:35:36.071Z131.989° SE
8 mins2024-12-26 18:08:36.071Z358.743° N2024-12-26 18:12:36.071Z283.652° WNW37.908°2024-12-26 18:16:36.071Z217.123° SW
7 mins2024-12-27 03:48:36.071Z114.971° SE2024-12-27 03:51:36.071Z70.469° E25.086°2024-12-27 03:55:36.071Z13.333° NNE
7 mins2024-12-27 05:28:36.071Z211.949° SW2024-12-27 05:31:36.071Z269.251° W29.773°2024-12-27 05:35:36.071Z325.563° NNW
|